World > North America > United States > Minnesota > Avon   City of Avon, MN

Avon, MN Hourly Weather Updates

Feedback E-mail the Weather

Quick Clicks

Avon, MN Weather Maps

°F °C°F °C
Avon Weather Map
UTC Time: 4/25/2024, 01:59
Your Time:

Avon, MN Regional Weather

Expires:202404250200;;321497
ASUS43 KMPX 250110
RWRMN 
WEATHER ROUNDUP FOR MINNESOTA
NATIONAL WEATHER SERVICE TWIN CITIES/CHANHASSEN MN
800 PM CDT WED APR 24 2024


NOTE: "FAIR" INDICATES FEW OR NO CLOUDS BELOW 12,000 FEET WITH NO
SIGNIFICANT WEATHER AND/OR OBSTRUCTIONS TO VISIBILITY. N/A MEANS
CURRENT SKY AND/OR WEATHER CONDITIONS ARE NOT AVAILABLE.


MNZ033>034-036-042>043-049>051-058-059-250200-
   Central Minnesota     
  
CITY           SKY/WX    TMP DP  RH WIND       PRES   REMARKS
ST CLOUD       MOCLDY    56  31  38 SE9       30.15S                  
SAUK CENTRE    MOCLDY    56  30  35 E3        30.12S                  
PAYNESVILLE    MOCLDY    59  32  36 SE7       30.13S                  
AITKIN         CLEAR     52  30  43 SE6       30.16S                  
PINE RIVER     CLEAR     55  34  44 SE7       30.16S                  
BRAINERD       PTCLDY    54  31  41 VRB3      30.14S                  
STAPLES        PTCLDY    59  27  29 SE3       30.13R                  
LONG PRAIRIE   MOCLDY    55  30  38 SE5       30.13S                  
LITTLE FALLS   PTCLDY    54  32  43 SE6       30.14S                  
CAMP RIPLEY    PTCLDY    56  32  39 SE8       30.12S                  
LITCHFIELD       N/A    N/A N/A N/A MISG        N/A                   
BUFFALO        PTCLDY    54  32  43 SE7       30.16S                  
MAPLE LAKE     MOCLDY    56  31  38 E6        30.17S                  
HUTCHINSON     PTCLDY    59  28  30 SE10      30.15S                  
$$

SKY/WX - Weather  TMP - Temperature  DP - Dew Point  RH - Humidity
WIND - Wind Direction/Speed PRES - Barometric Pressure VSB - Visibility
WCI - Wind Chill Index E13G22 Wind - East Wind 13 mph/Gusts of 22 mph

Trending Headlines

Trending Entertainment Headlines

Avon Radar Loop

Use the map search tool if you want to place a location marker on the radar map...

Avon Quick Facts

National Two Day Weather Forecast


E-mail the Avon Weather Forecast

Voice your opinion or tell us about page issues...